Time,TemperatureF,DewpointF,PressureIn,WindDirection,WindDirectionDegrees,WindSpeedMPH,WindSpeedGustMPH,Humidity,HourlyPrecipIn,Conditions,Clouds,dailyrainin,SoftwareType,DateUTC
2017-10-18 00:09:00,43.3,38.0,30.23,NNW,346,0.0,1.0,81,0.00,,,0.00,weatherlink.com 1.10,2017-10-18 04:09:00,
2017-10-18 00:24:00,43.5,38.0,30.23,NNW,346,0.0,1.0,81,0.00,,,0.00,weatherlink.com 1.10,2017-10-18 04:24:00,
2017-10-18 00:39:00,43.4,38.0,30.23,North,352,0.0,2.0,82,0.00,,,0.00,weatherlink.com 1.10,2017-10-18 04:39:00,
2017-10-18 00:54:00,42.9,38.0,30.23,North,353,0.0,0.0,83,0.00,,,0.00,weatherlink.com 1.10,2017-10-18 04:54:00,
2017-10-18 01:09:00,42.7,39.0,30.22,North,353,0.0,0.0,85,0.00,,,0.00,weatherlink.com 1.10,2017-10-18 05:09:00,
2017-10-18 01:24:00,42.1,38.0,30.22,North,353,0.0,0.0,85,0.00,,,0.00,weatherlink.com 1.10,2017-10-18 05:24:00,
2017-10-18 01:39:00,41.8,38.0,30.21,North,353,0.0,0.0,85,0.00,,,0.00,weatherlink.com 1.10,2017-10-18 05:39:00,
2017-10-18 01:54:00,42.3,38.0,30.21,SE,135,0.0,1.0,85,0.00,,,0.00,weatherlink.com 1.10,2017-10-18 05:54:00,
2017-10-18 02:09:00,42.2,38.0,30.21,SE,135,0.0,0.0,85,0.00,,,0.00,weatherlink.com 1.10,2017-10-18 06:09:00,
2017-10-18 02:24:00,42.2,38.0,30.22,SE,136,0.0,0.0,86,0.00,,,0.00,weatherlink.com 1.10,2017-10-18 06:24:00,
2017-10-18 02:55:00,40.9,38.0,30.22,SE,135,0.0,1.0,89,0.00,,,0.00,weatherlink.com 1.10,2017-10-18 06:55:00,
2017-10-18 03:10:00,40.9,38.0,30.22,SE,129,0.0,1.0,90,0.00,,,0.00,weatherlink.com 1.10,2017-10-18 07:10:00,
2017-10-18 03:25:00,41.4,38.0,30.22,ENE,68,1.0,5.0,89,0.00,,,0.00,weatherlink.com 1.10,2017-10-18 07:25:00,
2017-10-18 03:39:00,42.6,39.0,30.23,NE,51,0.0,2.0,86,0.00,,,0.00,weatherlink.com 1.10,2017-10-18 07:39:00,
2017-10-18 03:55:00,43.5,38.0,30.23,ENE,57,0.0,1.0,82,0.00,,,0.00,weatherlink.com 1.10,2017-10-18 07:55:00,
2017-10-18 04:10:00,43.7,38.0,30.23,WNW,283,0.0,1.0,81,0.00,,,0.00,weatherlink.com 1.10,2017-10-18 08:10:00,
2017-10-18 04:25:00,43.7,38.0,30.23,NW,316,0.0,1.0,80,0.00,,,0.00,weatherlink.com 1.10,2017-10-18 08:25:00,
2017-10-18 04:40:00,43.7,38.0,30.23,NNW,345,0.0,1.0,80,0.00,,,0.00,weatherlink.com 1.10,2017-10-18 08:40:00,
2017-10-18 04:55:00,43.6,38.0,30.23,NNW,346,0.0,1.0,80,0.00,,,0.00,weatherlink.com 1.10,2017-10-18 08:55:00,
2017-10-18 05:10:00,43.2,38.0,30.24,NNW,345,0.0,1.0,81,0.00,,,0.00,weatherlink.com 1.10,2017-10-18 09:10:00,
2017-10-18 05:25:00,42.3,38.0,30.24,NNW,345,0.0,0.0,83,0.00,,,0.00,weatherlink.com 1.10,2017-10-18 09:25:00,
2017-10-18 05:40:00,41.7,37.0,30.24,NNW,345,0.0,0.0,84,0.00,,,0.00,weatherlink.com 1.10,2017-10-18 09:40:00,
2017-10-18 05:55:00,41.2,37.0,30.25,NNW,345,0.0,0.0,85,0.00,,,0.00,weatherlink.com 1.10,2017-10-18 09:55:00,
2017-10-18 06:10:00,41.9,37.0,30.25,NNW,346,0.0,1.0,84,0.00,,,0.00,weatherlink.com 1.10,2017-10-18 10:10:00,
2017-10-18 06:25:00,42.0,38.0,30.25,NNW,345,0.0,1.0,84,0.00,,,0.00,weatherlink.com 1.10,2017-10-18 10:25:00,
2017-10-18 06:40:00,42.1,38.0,30.26,NNW,345,0.0,1.0,84,0.00,,,0.00,weatherlink.com 1.10,2017-10-18 10:40:00,
2017-10-18 06:55:00,42.5,38.0,30.26,West,278,0.0,2.0,83,0.00,,,0.00,weatherlink.com 1.10,2017-10-18 10:55:00,
2017-10-18 07:10:00,42.5,38.0,30.27,NW,326,0.0,1.0,83,0.00,,,0.00,weatherlink.com 1.10,2017-10-18 11:10:00,
2017-10-18 07:25:00,41.8,37.0,30.28,NW,326,0.0,1.0,84,0.00,,,0.00,weatherlink.com 1.10,2017-10-18 11:25:00,
2017-10-18 07:40:00,41.5,38.0,30.28,NNW,328,0.0,1.0,86,0.00,,,0.00,weatherlink.com 1.10,2017-10-18 11:40:00,
2017-10-18 07:55:00,41.4,38.0,30.29,NW,326,0.0,1.0,87,0.00,,,0.00,weatherlink.com 1.10,2017-10-18 11:55:00,
2017-10-18 08:10:00,41.7,38.0,30.29,NW,326,0.0,0.0,88,0.00,,,0.00,weatherlink.com 1.10,2017-10-18 12:10:00,
2017-10-18 08:25:00,43.3,39.0,30.30,West,276,0.0,1.0,86,0.00,,,0.00,weatherlink.com 1.10,2017-10-18 12:25:00,
2017-10-18 08:40:00,45.6,40.0,30.31,WSW,253,0.0,3.0,81,0.00,,,0.00,weatherlink.com 1.10,2017-10-18 12:40:00,
2017-10-18 08:55:00,47.2,41.0,30.31,WSW,239,0.0,2.0,78,0.00,,,0.00,weatherlink.com 1.10,2017-10-18 12:55:00,
2017-10-18 09:10:00,48.4,41.0,30.31,SSE,155,0.0,1.0,76,0.00,,,0.00,weatherlink.com 1.10,2017-10-18 13:10:00,
2017-10-18 09:25:00,49.8,42.0,30.32,South,181,0.0,1.0,74,0.00,,,0.00,weatherlink.com 1.10,2017-10-18 13:25:00,
2017-10-18 09:40:00,51.2,44.0,30.32,SSW,195,0.0,1.0,75,0.00,,,0.00,weatherlink.com 1.10,2017-10-18 13:40:00,
2017-10-18 09:56:00,52.6,43.0,30.32,WSW,248,0.0,1.0,70,0.00,,,0.00,weatherlink.com 1.10,2017-10-18 13:56:00,
2017-10-18 10:10:00,53.9,43.0,30.31,SW,219,1.0,2.0,68,0.00,,,0.00,weatherlink.com 1.10,2017-10-18 14:10:00,
2017-10-18 10:26:00,55.8,45.0,30.31,South,191,1.0,1.0,68,0.00,,,0.00,weatherlink.com 1.10,2017-10-18 14:26:00,
2017-10-18 10:41:00,56.9,45.0,30.31,West,266,1.0,2.0,65,0.00,,,0.00,weatherlink.com 1.10,2017-10-18 14:41:00,
2017-10-18 10:56:00,58.6,46.0,30.30,South,170,0.0,2.0,63,0.00,,,0.00,weatherlink.com 1.10,2017-10-18 14:56:00,
2017-10-18 11:11:00,59.5,47.0,30.30,South,191,1.0,2.0,63,0.00,,,0.00,weatherlink.com 1.10,2017-10-18 15:11:00,
2017-10-18 11:26:00,60.2,48.0,30.30,SSW,211,0.0,2.0,64,0.00,,,0.00,weatherlink.com 1.10,2017-10-18 15:26:00,
2017-10-18 11:41:00,61.7,49.0,30.30,SSW,195,2.0,3.0,63,0.00,,,0.00,weatherlink.com 1.10,2017-10-18 15:41:00,
2017-10-18 11:56:00,62.8,49.0,30.29,SSW,197,1.0,5.0,62,0.00,,,0.00,weatherlink.com 1.10,2017-10-18 15:56:00,
2017-10-18 12:11:00,64.2,51.0,30.29,SW,216,1.0,4.0,62,0.00,,,0.00,weatherlink.com 1.10,2017-10-18 16:11:00,
2017-10-18 12:26:00,65.4,50.0,30.29,South,172,2.0,3.0,58,0.00,,,0.00,weatherlink.com 1.10,2017-10-18 16:26:00,
2017-10-18 12:41:00,66.5,51.0,30.29,SW,221,1.0,2.0,57,0.00,,,0.00,weatherlink.com 1.10,2017-10-18 16:41:00,
2017-10-18 12:56:00,68.0,51.0,30.28,South,184,1.0,2.0,55,0.00,,,0.00,weatherlink.com 1.10,2017-10-18 16:56:00,
2017-10-18 13:11:00,68.3,51.0,30.27,SSE,159,0.0,2.0,54,0.00,,,0.00,weatherlink.com 1.10,2017-10-18 17:11:00,
2017-10-18 13:26:00,68.7,51.0,30.27,ESE,116,0.0,2.0,54,0.00,,,0.00,weatherlink.com 1.10,2017-10-18 17:26:00,
2017-10-18 13:41:00,69.7,52.0,30.26,SSE,158,1.0,3.0,53,0.00,,,0.00,weatherlink.com 1.10,2017-10-18 17:41:00,
2017-10-18 13:56:00,69.4,51.0,30.25,SW,228,0.0,3.0,53,0.00,,,0.00,weatherlink.com 1.10,2017-10-18 17:56:00,
2017-10-18 14:11:00,69.9,52.0,30.25,ESE,108,1.0,2.0,54,0.00,,,0.00,weatherlink.com 1.10,2017-10-18 18:11:00,
2017-10-18 14:27:00,69.4,52.0,30.25,South,191,0.0,3.0,54,0.00,,,0.00,weatherlink.com 1.10,2017-10-18 18:27:00,
2017-10-18 14:41:00,70.6,52.0,30.24,NNE,19,1.0,3.0,53,0.00,,,0.00,weatherlink.com 1.10,2017-10-18 18:41:00,
2017-10-18 14:56:00,71.0,52.0,30.24,South,184,1.0,3.0,52,0.00,,,0.00,weatherlink.com 1.10,2017-10-18 18:56:00,
2017-10-18 15:11:00,70.8,52.0,30.23,WNW,287,2.0,5.0,52,0.00,,,0.00,weatherlink.com 1.10,2017-10-18 19:11:00,
2017-10-18 15:26:00,70.3,52.0,30.23,SW,219,0.0,3.0,52,0.00,,,0.00,weatherlink.com 1.10,2017-10-18 19:26:00,
2017-10-18 15:41:00,69.6,52.0,30.23,SSE,155,1.0,3.0,53,0.00,,,0.00,weatherlink.com 1.10,2017-10-18 19:41:00,
2017-10-18 15:56:00,69.3,51.0,30.23,WSW,239,0.0,2.0,53,0.00,,,0.00,weatherlink.com 1.10,2017-10-18 19:56:00,
2017-10-18 16:11:00,69.2,51.0,30.22,NE,51,1.0,2.0,53,0.00,,,0.00,weatherlink.com 1.10,2017-10-18 20:11:00,
2017-10-18 16:26:00,68.8,51.0,30.22,SE,131,0.0,1.0,54,0.00,,,0.00,weatherlink.com 1.10,2017-10-18 20:26:00,
2017-10-18 16:49:00,68.5,52.0,30.22,NNE,22,1.0,2.0,55,0.00,,,0.00,weatherlink.com 1.10,2017-10-18 20:49:00,